Time,TemperatureF,DewpointF,PressureIn,WindDirection,WindDirectionDegrees,WindSpeedMPH,WindSpeedGustMPH,Humidity,HourlyPrecipIn,Conditions,Clouds,dailyrainin,SolarRadiationWatts/m^2,SoftwareType,DateUTC
2013-06-20 00:22:00,40.0,28.0,-100.00,SW,220,2.0,8.0,62,0.00,,,0.00,1.000000,,2013-06-20 07:22:00,
2013-06-20 00:34:00,40.0,28.0,-100.00,SW,220,2.0,8.0,62,0.00,,,0.00,1.000000,,2013-06-20 07:34:00,
2013-06-20 00:43:00,40.0,28.0,-100.00,SW,220,2.0,8.0,62,0.00,,,0.00,1.000000,,2013-06-20 07:43:00,
2013-06-20 00:51:00,35.0,26.0,-100.00,SSW,201,0.0,5.0,70,0.00,,,0.00,1.000000,,2013-06-20 07:51:00,
2013-06-20 01:22:00,35.0,26.0,-100.00,SSW,201,0.0,5.0,70,0.00,,,0.00,1.000000,,2013-06-20 08:22:00,
2013-06-20 01:34:00,35.0,26.0,-100.00,SSW,201,0.0,5.0,70,0.00,,,0.00,1.000000,,2013-06-20 08:34:00,
2013-06-20 01:43:00,35.0,26.0,-100.00,SSW,201,0.0,5.0,70,0.00,,,0.00,1.000000,,2013-06-20 08:43:00,
2013-06-20 02:11:00,31.0,25.0,-100.00,WNW,285,0.0,2.0,79,0.00,,,0.00,1.000000,,2013-06-20 09:11:00,
2013-06-20 02:22:00,31.0,25.0,-100.00,WNW,285,0.0,2.0,79,0.00,,,0.00,1.000000,,2013-06-20 09:22:00,
2013-06-20 07:11:00,28.0,25.0,-100.00,NNE,22,0.0,0.0,87,-99.99,,,0.00,36.000000,,2013-06-20 14:11:00,
2013-06-20 07:51:00,45.0,24.0,-100.00,NNE,31,1.0,2.0,43,-99.99,,,0.00,322.000000,,2013-06-20 14:51:00,
2013-06-20 08:22:00,45.0,24.0,-100.00,NNE,31,1.0,2.0,43,-99.99,,,0.00,322.000000,,2013-06-20 15:22:00,
2013-06-20 08:33:00,45.0,24.0,-100.00,NNE,31,1.0,2.0,43,-99.99,,,0.00,322.000000,,2013-06-20 15:33:00,
2013-06-20 08:43:00,45.0,24.0,-100.00,NNE,31,1.0,2.0,43,-99.99,,,0.00,322.000000,,2013-06-20 15:43:00,
2013-06-20 08:51:00,54.0,25.0,-100.00,ESE,108,2.0,4.0,32,0.00,,,-99.99,524.000000,,2013-06-20 15:51:00,
2013-06-20 09:22:00,54.0,25.0,-100.00,ESE,108,2.0,4.0,32,0.00,,,-99.99,524.000000,,2013-06-20 16:22:00,
2013-06-20 09:33:00,54.0,25.0,-100.00,ESE,108,2.0,4.0,32,0.00,,,-99.99,524.000000,,2013-06-20 16:33:00,
2013-06-20 09:42:00,54.0,25.0,-100.00,ESE,108,2.0,4.0,32,0.00,,,-99.99,524.000000,,2013-06-20 16:42:00,
2013-06-20 09:51:00,57.0,23.0,-100.00,North,11,3.0,6.0,27,0.00,,,0.00,712.000000,,2013-06-20 16:51:00,
2013-06-20 10:11:00,57.0,23.0,-100.00,North,11,3.0,6.0,27,0.00,,,0.00,712.000000,,2013-06-20 17:11:00,
2013-06-20 10:22:00,57.0,23.0,-100.00,North,11,3.0,6.0,27,0.00,,,0.00,712.000000,,2013-06-20 17:22:00,
2013-06-20 10:32:00,57.0,23.0,-100.00,North,11,3.0,6.0,27,0.00,,,0.00,712.000000,,2013-06-20 17:32:00,
2013-06-20 10:42:00,57.0,23.0,-100.00,North,11,3.0,6.0,27,0.00,,,0.00,712.000000,,2013-06-20 17:42:00,
2013-06-20 10:51:00,63.0,21.0,-100.00,SSW,202,3.0,7.0,20,0.00,,,0.00,871.000000,,2013-06-20 17:51:00,
2013-06-20 11:11:00,63.0,21.0,-100.00,SSW,202,3.0,7.0,20,0.00,,,0.00,871.000000,,2013-06-20 18:11:00,
2013-06-20 11:22:00,63.0,21.0,-100.00,SSW,202,3.0,7.0,20,0.00,,,0.00,871.000000,,2013-06-20 18:22:00,
2013-06-20 11:33:00,63.0,21.0,-100.00,SSW,202,3.0,7.0,20,0.00,,,0.00,871.000000,,2013-06-20 18:33:00,
2013-06-20 11:43:00,63.0,21.0,-100.00,SSW,202,3.0,7.0,20,0.00,,,0.00,871.000000,,2013-06-20 18:43:00,
2013-06-20 11:51:00,64.0,20.0,-100.00,SW,229,5.0,14.0,18,0.00,,,0.00,981.000000,,2013-06-20 18:51:00,
2013-06-20 12:22:00,64.0,20.0,-100.00,SW,229,5.0,14.0,18,0.00,,,0.00,981.000000,,2013-06-20 19:22:00,
2013-06-20 12:33:00,64.0,20.0,-100.00,SW,229,5.0,14.0,18,0.00,,,0.00,981.000000,,2013-06-20 19:33:00,
2013-06-20 12:43:00,64.0,20.0,-100.00,SW,229,5.0,14.0,18,0.00,,,0.00,981.000000,,2013-06-20 19:43:00,
2013-06-20 12:51:00,64.0,20.0,-100.00,SSW,212,6.0,18.0,18,0.00,,,0.00,1037.000000,,2013-06-20 19:51:00,
2013-06-20 13:22:00,64.0,20.0,-100.00,SSW,212,6.0,18.0,18,0.00,,,0.00,1037.000000,,2013-06-20 20:22:00,
2013-06-20 13:33:00,64.0,20.0,-100.00,SSW,212,6.0,18.0,18,0.00,,,0.00,1037.000000,,2013-06-20 20:33:00,
2013-06-20 13:42:00,64.0,20.0,-100.00,SSW,212,6.0,18.0,18,0.00,,,0.00,1037.000000,,2013-06-20 20:42:00,